Flight Information

DEPARTURE
RENO, NV
Elevation:
4414
Runways:
7/25 - 6102x150 - CONC-G
16L/34R - 9000x150 - CONC-G
16R/34L - 11001x150 - CONC-G
Active PE Departure:
17R - 17L
Current PE ATIS:
O
Altimeter:
29.93
Remarks:
V F R DEPARTURES CONTACT CLEARANCE DELIVERY, ADVISE ON COURSE HEADING, ALTITUDE, AND IF FLIGHT FOLLOWING IS REQUESTED.
ATIS:
135.8 775-348-1550
Clearance Delivery:
124.9
Ground:
121.9
Tower:
RENO TOWER 118.7
DESTINATION
,
Elevation:
TPA:
1000 (est.)


6751.3 NM70° True-16° Var53° HDG

Flight Plan:
(click to file on line)

1. Type
2. Aircraft Identification
3. Aircraft Type / Special Equipment
4. True Airspeed
kts
5. Departure Airport
(ICAO code)
6. Arriving Airport
(ICAO code)
7. Cruising Altitude
ft
8. Alternate Airport
(ICAO code)
9. Route of Flight
10. Remarks


00:00:00 Departure ATIS: Destination ATIS:

Clearance Limit:
Route:
Altitude: Expect in minutes
Frequency:
Transponder: (7500 Hijack / 7600 Lost Comms / 7700 Emergency)


KRNO 202355Z 00000KT 10SM FEW250 08/M09 A3028 RMK AO2 SLP264 T00831089 10089 21017 56012
Time: 2022-11-20T23:55:00Z
1670651996
Winds: calm
Visibility: 10.0 sm
Clouds (AGL): FEW 25000
Temperature: 8.3 C
Dew Point: -8.9 C
Pressure: 30.280512 in Hgbr


Notes:

Data extracted from FAA Digital Chart Supplement. Effective: 0901Z Thursday, 27 JAN 2022 to 0900z Thursday, 24 MAR 2022
Current ATIS data is provided courtisy of PilotEdge.